Location: Bikkestelep
(48.1667°N, 20.6500°E)
Time: 07:33:06
(UTC+00:00)

Daily predictions for brighter satellites

Satellite Brightness Start Highest point End
(mag) Time Altitude Azimuth Time Altitude Azimuth Time Altitude Azimuth
Radarsat Rocket 4.1 15:16:33 10° SSE 15:22:28 65° ENE 15:29:01 10° NNW
CZ-4B DEB 4.2 15:17:47 10° SSE 15:23:16 79° ENE 15:28:46 10° NNW
Cosmos 1408 Rocket 3.6 15:19:05 10° N 15:23:31 86° W 15:27:51 10° S
PSLV R/B 3.9 15:19:45 10° SSE 15:23:51 81° ENE 15:27:58 10° NNW
Cosmos 2333 Rocket 2.3 15:20:38 10° SSW 15:26:20 86° WNW 15:32:04 10° NNE
Sich 1 4.1 15:23:17 10° NNE 15:26:53 24° ENE 15:30:26 10° ESE
Nadezhda 1 Rocket 4.3 15:21:30 10° SSE 15:27:29 46° E 15:33:33 10° NNE
SJ-7 4.4 15:25:19 10° SSE 15:29:19 90° W 15:33:19 10° NNW
Cosmos 1606 4.3 15:27:05 10° SE 15:29:40 17° E 15:32:14 10° NE
Cosmos 1842 Rocket 3.5 15:27:11 10° S 15:31:29 74° E 15:35:50 10° NNE
COSMOS 2428 2.8 15:26:05 10° SSW 15:31:50 83° ESE 15:37:35 10° NNE
Okean O Rocket 1.9 15:27:43 10° SE 15:31:51 43° ENE 15:36:00 10° N
Cosmos 1125 Rocket 3.7 15:27:06 10° NNW 15:32:08 47° ENE 15:37:08 10° SE
Cosmos 2208 Rocket 4.0 15:30:33 10° SSW 15:35:49 82° ESE 15:41:12 10° NNE
MOS 1-B 4.5 15:31:24 10° SSE 15:37:12 88° WSW 15:43:03 10° NNW
Cosmos 2278 Rocket 2.2 15:31:58 10° NNW 15:37:41 74° ENE 15:43:21 10° SSE
ISS -2.6 15:34:39 10° SSW 15:37:42 32° SE 15:40:35 11° E
Cosmos 1805 Rocket 4.1 15:33:36 10° N 15:37:48 38° ENE 15:41:57 10° SE
Cosmos 2154 Rocket 4.1 15:33:09 10° N 15:39:27 63° ENE 15:45:44 10° SSE
Cosmos 482 Debris 3.9 15:39:53 10° NW 15:41:26 23° N 15:42:26 15° NE
USA 267 3.5 15:36:06 10° E 15:42:25 55° NNE 15:48:46 10° NW
CZ-4B R/B 2.6 15:44:07 11° NE 15:46:12 20° E 15:48:33 10° SE
Cosmos 540 Rocket 4.0 15:41:55 10° SW 15:46:59 60° WNW 15:52:04 10° NNE
Cosmos 724 4.4 15:41:31 10° SW 15:47:25 90° WNW 15:53:31 10° NE
Aureole 2 Rocket 4.4 15:45:46 10° NW 15:48:10 27° WSW 15:50:39 10° SSW
Cosmos 2341 Rocket 4.4 15:42:16 10° N 15:48:11 41° ENE 15:54:07 10° SE
Cosmos 1862 3.2 15:45:24 10° N 15:49:28 81° E 15:53:29 10° SSE
Cosmos 2360 Rocket 3.8 15:44:47 10° WSW 15:49:42 30° NW 15:54:38 10° NNE
NOSS 0 Rocket 4.0 15:43:37 10° SSW 15:49:45 62° ESE 15:55:55 10° NE
SL-24 R/B - RUBIN 2 4.3 15:46:16 10° NW 15:52:43 84° NE 15:58:25 10° SE
Cosmos 2292 4.5 15:51:10 10° S 15:54:11 53° E 15:57:45 10° NNE
NOAA 12 4.1 15:49:25 10° SSE 15:54:44 79° ENE 16:00:05 10° NNW
Cosmos 2219 Rocket 2.8 15:52:04 10° SW 15:57:38 58° WNW 16:03:14 10° NNE
ERS-2 3.0 15:55:10 11° NE 15:58:11 28° E 16:01:22 10° SSE
Cosmos 841 Rocket 4.3 15:54:02 10° SW 15:59:07 50° WNW 16:04:12 10° NNE
Landsat 5 3.9 15:55:31 10° N 15:59:51 72° WNW 16:04:18 10° SSW
CZ-2D R/B 4.3 15:57:56 10° ESE 16:00:59 23° ENE 16:04:04 10° NNE
CZ-4B R/B 3.2 15:57:05 10° SSE 16:02:27 84° WSW 16:07:47 10° NNW
Envisat 3.8 15:57:35 10° S 16:02:34 56° W 16:07:35 10° NNW
CZ-4 R/B 2.7 16:02:21 17° E 16:03:39 19° ENE 16:06:31 10° NNE
H-2A R/B 2.0 15:59:58 10° NNE 16:04:09 83° WNW 16:08:22 10° SSW
SMAP 3.2 15:59:54 10° SSE 16:04:33 82° WSW 16:09:15 10° NNW
SL-16 R/B 4.5 16:02:47 10° WNW 16:06:01 15° NW 16:09:15 10° N
TELKOM 3 4.5 16:04:03 10° SSW 16:06:27 27° SSE 16:07:19 21° ESE
SKYMED 2 4.5 16:03:31 12° NE 16:06:50 28° E 16:10:35 10° SSE
Cosmos 2237 Rocket 2.2 16:01:26 10° SSW 16:06:58 64° ESE 16:12:33 10° NNE
NOAA 11 4.1 16:03:56 10° SSE 16:09:19 71° ENE 16:14:45 10° N
FengYun 1-2 T 4.2 16:05:29 10° SSE 16:11:01 77° ENE 16:16:33 10° NNW
SL-8 Rocket 4.2 16:06:41 10° N 16:12:41 47° ENE 16:18:42 10° SSE
GENESIS II 4.2 16:08:51 10° NW 16:12:50 86° SW 16:16:44 10° SE
H-2A R/B 3.1 16:11:48 15° ESE 16:14:43 23° ENE 16:18:44 10° N
Cosmos 1633 Rocket 3.5 16:10:42 10° N 16:14:48 36° ENE 16:18:50 10° SE
CREW DRAGON DEMO-1 DEB 2.8 16:11:52 10° WNW 16:14:50 61° NNE 16:16:01 31° E
Cosmos 1939 Rocket 3.0 16:12:15 10° SE 16:15:57 45° ENE 16:19:42 10° N
USA 281 3.4 16:10:29 10° SE 16:16:43 49° NE 16:23:00 10° NNW
Cosmos 2369 Rocket 3.3 16:14:27 10° N 16:18:56 23° NE 16:20:20 21° ENE
CORIOLIS 4.4 16:14:45 10° S 16:20:08 74° WSW 16:25:36 10° NNW
Cosmos 2181 Rocket 4.3 16:14:22 10° SSE 16:20:26 45° E 16:26:28 10° NNE
Meteor 2-12 Rocket 4.4 16:16:19 10° N 16:22:30 79° E 16:28:38 10° SSE
Cosmos 1980 3.7 16:19:26 10° SSW 16:25:08 90° W 16:30:35 11° NNE
Cosmos 2221 4.3 16:24:45 10° SW 16:28:40 32° WNW 16:32:36 10° N
Cosmos 2297 3.6 16:39:08 10° NNW 16:44:49 70° ENE 16:50:30 10° SE
YAOGAN 1 2.8 16:44:13 36° ESE 16:45:15 44° ENE 16:49:23 10° N
Cosmos 389 Rocket 2.7 16:43:59 10° SSW 16:47:24 67° WNW 16:49:22 23° N
Cosmos 1943 Rocket 2.4 16:42:49 10° NNW 16:48:11 47° NE 16:50:06 34° ESE
Cosmos 1470 Rocket 3.7 16:45:59 10° N 16:50:04 47° ENE 16:50:04 47° ENE
Cosmos 1689 Rocket 4.3 16:53:23 16° S 16:53:23 16° S 16:54:08 10° S
Cosmos 44 3.4 16:46:19 10° NW 16:51:34 67° NE 16:54:10 31° ESE
USA 215 3.2 16:47:51 28° ENE 16:51:39 81° SE 16:58:12 10° SW
Cosmos 1933 3.2 16:47:53 10° S 16:51:54 78° E 16:53:49 30° NNE
BREEZE-M DEB (TANK) 2.8 16:51:34 10° W 16:53:03 44° W 16:53:03 44° W
SL-16 R/B 2.2 16:49:18 10° S 16:54:48 57° ESE 16:56:52 36° NE
COSMO-SKYMED 1 2.4 16:52:07 20° NNE 16:55:05 84° ESE 16:59:26 10° SSW
Cosmos 1867 3.5 16:49:54 10° SSW 16:55:17 68° ESE 16:57:16 39° NE
CZ-2C R/B 2.9 16:50:23 10° SSE 16:55:28 65° ENE 17:00:20 10° N
CZ-4 R/B 4.3 16:51:47 10° SSE 16:55:55 90° SSE 17:00:06 10° NNW
ARGOS 3.8 16:57:00 35° NE 16:57:00 35° NE 17:01:13 10° N
Okean-O 2.5 16:52:19 10° SSE 16:56:43 68° ENE 17:01:09 10° N
Cosmos 2218 Rocket 3.8 16:52:17 10° N 16:58:29 84° E 17:04:38 10° S
Meteor 1-26 Rocket 4.3 16:54:01 10° S 16:59:55 62° E 17:05:33 12° NNE
PSLV R/B 3.7 17:00:30 66° E 17:00:40 68° ESE 17:04:41 10° S
Cosmos 1606 4.0 17:01:21 10° SSW 17:05:03 41° WNW 17:08:40 11° N
Okean O Rocket 4.2 17:05:02 10° SW 17:08:24 22° W 17:11:47 10° NW
Helios 1A Rocket 2.7 17:07:32 31° SSE 17:09:25 89° WSW 17:13:28 10° NNW
Cosmos 2366 rocket 3.9 17:03:20 10° N 17:09:35 85° W 17:15:45 10° S
DEBRIS 3.8 16:55:30 10° W 17:09:56 83° N 17:11:14 52° E
Cosmos 2333 Rocket 4.3 17:07:18 10° W 17:11:27 20° NW 17:15:38 10° N
ISS -2.7 17:11:01 10° W 17:13:33 45° WNW 17:13:33 45° WNW
SAR-Lupe-4 4.2 17:15:58 52° NW 17:16:15 54° WNW 17:19:46 10° SSW
CZ-4B R/B 3.6 17:17:16 18° NW 17:18:25 22° WNW 17:20:53 10° WSW
Cosmos 1151 Rocket 3.3 17:17:57 10° SSW 17:22:13 64° WNW 17:23:24 43° NNW
USA 267 3.4 17:21:44 29° SE 17:25:21 70° SW 17:31:54 10° WNW
Cosmos 1328 Rocket 3.9 17:23:51 10° SSW 17:28:07 63° W 17:28:37 58° NW
Lacrosse 5 rocket 3.2 17:26:50 10° SW 17:28:08 20° SSW 17:28:08 20° SSW
ERS-2 4.3 17:29:46 17° NNW 17:31:37 24° WNW 17:34:37 10° WSW
Cosmos 489 Rocket 4.3 17:27:47 10° S 17:33:43 66° ESE 17:33:43 66° ESE
CSL-04 Debris 4.1 17:36:09 50° SSE 17:37:39 87° WSW 17:43:12 10° NNW
CZ-4 R/B 2.4 17:38:22 43° W 17:38:22 43° W 17:42:12 10° NNW
Cosmos 2237 Rocket 3.9 17:46:45 10° WSW 17:51:29 27° NW 17:54:26 18° N
H-2A R/B 2.5 17:52:26 46° SSW 17:53:46 61° W 17:58:57 10° NNW
USA 281 4.3 17:55:13 10° S 18:01:19 40° WSW 18:07:28 10° NW
CSL-04 Rocket 4.1 18:01:44 59° W 18:01:44 59° W 18:06:49 10° NNW
Cosmos 2369 Rocket 2.8 17:57:56 10° NNW 18:02:10 51° NW 18:02:10 51° NW
MOS 1 Rocket 4.3 18:03:47 49° NW 18:04:31 53° WNW 18:09:47 10° SW
Cosmos 1821 Rocket 4.2 18:05:49 10° NNW 18:11:29 65° WNW 18:11:29 65° WNW
Cosmos 1943 Rocket 3.7 18:26:54 10° NW 18:31:41 32° WSW 18:31:41 32° WSW
USA 215 3.9 18:35:13 48° NW 18:35:13 48° NW 18:40:43 10° W
SL-16 R/B 3.8 18:34:20 10° WSW 18:38:48 29° WNW 18:38:48 29° WNW
